Beaufort, NC

11:13 AM EDT on October 14, 2019 (GMT -0400)
Smith

Weather History for KMRH - May, 2019

Change the Weather History Date:

Tuesday, May 14, 2019

  Actual Average Record
Temperature  
Mean Temperature 67 °F -  
Max Temperature 75 °F 77 °F 92 °F (1956)
Min Temperature 61 °F 60 °F 46 °F (2008)
Cooling Degree Days 2    
Growing Degree Days 17 (Base 50)    
Moisture  
Dew Point 53 °F    
Average Humidity 64    
Maximum Humidity 87    
Minimum Humidity 38    
Precipitation  
Precipitation 0.00 in - - ()
Sea Level Pressure  
Sea Level Pressure 29.88 in    
Wind  
Wind Speed 9 mph (NNW)    
Max Wind Speed 18 mph    
Max Gust Speed -    
Visibility 10 miles    
Events      
Averages and records for this station are not official NWS values.
T = Trace of Precipitation, MM = Missing Value Source: NWS Daily Summary

Daily Weather History Graph

Daily Weather History Graph

Search for Another Location

Airport or City:

Astronomy

May. 14, 2019 Rise Set
Actual Time 6:04 AM EDT 8:01 PM EDT
Civil Twilight 5:36 AM EDT 8:29 PM EDT
Nautical Twilight 5:02 AM EDT 9:03 PM EDT
Astronomical Twilight 4:26 AM EDT 9:39 PM EDT
Moon 3:35 PM EDT 3:40 AM EDT
Length of Visible Light 14h 53m
Length of Day
13h 57m
Waxing Gibbous, 79% of the Moon is Illuminated
May 14
Waxing Gibbous
May 18
Full
May 26
Last Quarter
Jun 3
New
Jun 10
First Quarter

Hourly Weather History & Observations

Time (EDT) Temp. Dew Point Humidity Pressure Visibility Wind Dir Wind Speed Gust Speed Precip Events Conditions
12:58 AM 64.9 °F 60.1 °F 84% 29.81 in 10.0 mi NNE 5.8 mph - N/A   Clear
1:58 AM 63.0 °F 59.0 °F 87% 29.80 in 10.0 mi North 6.9 mph - N/A   Clear
2:58 AM 63.0 °F 59.0 °F 87% 29.79 in 10.0 mi North 10.4 mph - N/A   Clear
3:58 AM 62.1 °F 57.9 °F 86% 29.81 in 10.0 mi North 8.1 mph - N/A   Clear
4:58 AM 61.0 °F 57.0 °F 87% 29.82 in 10.0 mi North 6.9 mph - N/A   Clear
6:58 AM 63.0 °F 57.9 °F 84% 29.87 in 10.0 mi NNW 10.4 mph - N/A   Overcast
7:58 AM 64.0 °F 59.0 °F 84% 29.88 in 10.0 mi North 9.2 mph - N/A   Overcast
8:58 AM 66.0 °F 59.0 °F 78% 29.89 in 10.0 mi North 6.9 mph - N/A   Mostly Cloudy
9:14 AM 66.0 °F 59.0 °F 78% 29.89 in 10.0 mi NW 8.1 mph - N/A   Mostly Cloudy
9:56 AM 68.0 °F 59.0 °F 73% 29.89 in 10.0 mi NNW 8.1 mph - N/A   Overcast
9:58 AM 68.0 °F 59.0 °F 73% 29.89 in 10.0 mi NNW 8.1 mph - N/A   Overcast
10:09 AM 66.9 °F 57.9 °F 73% 29.89 in 10.0 mi NW 6.9 mph - N/A   Mostly Cloudy
10:58 AM 69.1 °F 57.9 °F 68% 29.89 in 10.0 mi NW 5.8 mph - N/A   Overcast
11:58 AM 70.0 °F 54.0 °F 57% 29.89 in 10.0 mi SSW 3.5 mph - N/A   Mostly Cloudy
12:58 PM 71.1 °F 54.0 °F 55% 29.87 in 10.0 mi SW 9.2 mph - N/A   Mostly Cloudy
1:58 PM 71.1 °F 52.0 °F 51% 29.86 in 10.0 mi WSW 10.4 mph - N/A   Mostly Cloudy
2:58 PM 72.0 °F 53.1 °F 51% 29.85 in 10.0 mi WSW 10.4 mph - N/A   Mostly Cloudy
3:58 PM 73.9 °F 46.9 °F 38% 29.84 in 10.0 mi WNW 16.1 mph - N/A   Partly Cloudy
4:58 PM 73.0 °F 46.9 °F 39% 29.85 in 10.0 mi NW 13.8 mph - N/A   Scattered Clouds
5:58 PM 71.1 °F 46.0 °F 41% 29.85 in 10.0 mi NNW 18.4 mph - N/A   Mostly Cloudy
6:58 PM 71.1 °F 44.1 °F 38% 29.87 in 10.0 mi NW 16.1 mph - N/A   Partly Cloudy
7:58 PM 68.0 °F 45.0 °F 43% 29.90 in 10.0 mi NNW 16.1 mph - N/A   Partly Cloudy
8:58 PM 64.9 °F 46.9 °F 52% 29.94 in 10.0 mi NNW 12.7 mph - N/A   Clear
9:58 PM 63.0 °F 45.0 °F 52% 29.97 in 10.0 mi North 10.4 mph - N/A   Clear
10:58 PM 62.1 °F 45.0 °F 53% 29.98 in 10.0 mi NNW 9.2 mph - N/A   Clear
11:58 PM 61.0 °F 45.0 °F 56% 29.98 in 10.0 mi NNW 9.2 mph - N/A   Clear